Lake Clear, NY

2:28 AM EDT on August 26, 2016 (GMT -0400)
Adirondack Regional

Weather History for KSLK - December, 2012

Change the Weather History Date:

Monday, December 3, 2012

  Actual Average Record
Temperature  
Mean Temperature 38 °F 24 °F  
Max Temperature 45 °F 34 °F 56 °F (1982)
Min Temperature 30 °F 15 °F -17 °F (1976)
Degree Days  
Heating Degree Days 27 41  
Month to date heating degree days 97 121  
Since 1 July heating degree days 2260 2396  
Cooling Degree Days 0 0  
Month to date cooling degree days 0  
Year to date cooling degree days 114  
Moisture  
Dew Point 36 °F    
Average Humidity 96    
Maximum Humidity 100    
Minimum Humidity 92    
Precipitation  
Precipitation 0.01 in 0.10 in 0.67 in (1980)
Month to date precipitation 0.46 0.28  
Year to date precipitation 31.41 35.51  
Sea Level Pressure  
Sea Level Pressure 30.14 in    
Wind  
Wind Speed 4 mph (SW)    
Max Wind Speed 14 mph    
Max Gust Speed 22 mph    
Visibility 6 miles    
Events Fog , Rain    
T = Trace of Precipitation, MM = Missing Value Source: NWS Daily Summary

Daily Weather History Graph

Daily Weather History Graph

Search for Another Location

Airport or City:

Trip Planner

Search our weather history database for the weather conditions in past years. The results will help you decide how hot, cold, wet, or windy it might be!

Date:

Astronomy

Dec. 03, 2012 Rise Set
Actual Time 7:15 AM EST 4:18 PM EST
Civil Twilight 6:42 AM EST 4:50 PM EST
Nautical Twilight 6:06 AM EST 5:27 PM EST
Astronomical Twilight 5:31 AM EST 6:02 PM EST
Moon 9:08 PM EST (12/3) 10:31 AM EST (12/3)
Length of Visible Light 10h 08m
Length of Day
9h 02m
Waning Gibbous, 78% of the Moon is Illuminated
Dec 3
Waning Gibbous
Dec 6
Last Quarter
Dec 13
New
Dec 20
First Quarter
Dec 28
Full

Hourly Weather History & Observations

Time (EST) Temp. Windchill Dew Point Humidity Pressure Visibility Wind Dir Wind Speed Gust Speed Precip Events Conditions
12:25 AM 44.6 °F 41.4 °F 44.6 °F 100% 29.92 in 6.0 mi West 5.8 mph - 0.00 in Rain Light Rain
12:51 AM 45.0 °F 39.7 °F 43.0 °F 93% 29.95 in 10.0 mi West 10.4 mph 19.6 mph 0.00 in   Overcast
12:58 AM 44.6 °F 39.7 °F 42.8 °F 93% 29.93 in 10.0 mi WSW 9.2 mph 18.4 mph N/A   Overcast
1:10 AM 44.6 °F 40.7 °F 42.8 °F 93% 29.94 in 10.0 mi WSW 6.9 mph - N/A   Overcast
1:51 AM 43.0 °F 38.8 °F 42.1 °F 97% 30.00 in 10.0 mi WSW 6.9 mph - N/A   Overcast
1:59 AM 42.8 °F 38.0 °F 41.0 °F 93% 29.97 in 9.0 mi WSW 8.1 mph - N/A   Overcast
2:46 AM 42.8 °F 38.6 °F 41.0 °F 93% 30.00 in 9.0 mi Variable 6.9 mph - N/A   Overcast
2:51 AM 43.0 °F 38.2 °F 41.0 °F 93% 30.03 in 9.0 mi West 8.1 mph - N/A   Overcast
3:33 AM 41.0 °F 38.0 °F 41.0 °F 100% 30.03 in 2.5 mi Variable 4.6 mph - 0.01 in   Overcast
3:39 AM 39.2 °F 32.0 °F 39.2 °F 100% 30.03 in 0.8 mi West 11.5 mph 18.4 mph 0.01 in   Overcast
3:51 AM 39.0 °F 34.0 °F 39.0 °F 100% 30.08 in 0.5 mi WNW 6.9 mph - 0.01 in Fog Fog
4:44 AM 37.4 °F 33.8 °F 37.4 °F 100% 30.06 in 1.0 mi Variable 4.6 mph - N/A   Overcast
4:51 AM 37.9 °F 34.4 °F 37.0 °F 97% 30.09 in 1.2 mi Variable 4.6 mph - N/A   Overcast
5:51 AM 36.0 °F 33.3 °F 36.0 °F 100% 30.13 in 1.0 mi Variable 3.5 mph - N/A   Overcast
6:21 AM 35.6 °F 31.7 °F 35.6 °F 100% 30.10 in 3.0 mi Variable 4.6 mph - N/A   Overcast
6:51 AM 35.1 °F 30.1 °F 34.0 °F 96% 30.16 in 4.0 mi Variable 5.8 mph - N/A   Overcast
7:47 AM 33.8 °F 30.8 °F 33.8 °F 100% 30.14 in 2.5 mi Variable 3.5 mph - N/A   Overcast
7:51 AM 34.0 °F 31.0 °F 34.0 °F 100% 30.19 in 4.0 mi West 3.5 mph - N/A   Overcast
8:51 AM 33.1 °F - 33.1 °F 100% 30.21 in 4.0 mi Calm Calm - N/A   Overcast
9:51 AM 33.1 °F 28.7 °F 32.0 °F 96% 30.22 in 4.0 mi WNW 4.6 mph - N/A   Overcast
10:51 AM 33.1 °F 30.0 °F 33.1 °F 100% 30.22 in 10.0 mi West 3.5 mph - N/A   Overcast
11:51 AM 33.1 °F - 32.0 °F 96% 30.22 in 10.0 mi Calm Calm - N/A   Overcast
12:37 PM 33.8 °F - 32.0 °F 93% 30.17 in 10.0 mi Calm Calm - N/A   Overcast
12:51 PM 34.0 °F - 32.0 °F 92% 30.20 in 10.0 mi Calm Calm - N/A   Overcast
1:29 PM 33.8 °F - 33.8 °F 100% 30.17 in 8.0 mi Calm Calm - N/A   Overcast
1:51 PM 34.0 °F 31.0 °F 33.1 °F 96% 30.21 in 7.0 mi West 3.5 mph - N/A   Overcast
2:38 PM 35.6 °F 31.7 °F 33.8 °F 93% 30.17 in 10.0 mi SW 4.6 mph - N/A   Overcast
2:51 PM 35.1 °F 32.2 °F 34.0 °F 96% 30.21 in 10.0 mi SW 3.5 mph - N/A   Overcast
3:51 PM 36.0 °F - 35.1 °F 97% 30.22 in 9.0 mi Calm Calm - N/A   Overcast
4:47 PM 35.6 °F - 33.8 °F 93% 30.18 in 9.0 mi Calm Calm - N/A   Overcast
4:51 PM 35.1 °F - 35.1 °F 100% 30.23 in 8.0 mi Calm Calm - N/A   Overcast
5:24 PM 35.6 °F - 35.6 °F 100% 30.18 in 9.0 mi Calm Calm - N/A   Overcast
5:51 PM 36.0 °F - 34.0 °F 93% 30.23 in 8.0 mi Calm Calm - N/A   Overcast
6:51 PM 36.0 °F 31.1 °F 35.1 °F 97% 30.22 in 10.0 mi SSW 5.8 mph - N/A   Overcast
7:51 PM 37.0 °F 31.6 °F 35.1 °F 93% 30.22 in 10.0 mi SSW 6.9 mph - N/A   Overcast
8:51 PM 36.0 °F 30.3 °F 35.1 °F 97% 30.23 in 10.0 mi SSW 6.9 mph - N/A   Overcast
9:51 PM 35.1 °F 31.0 °F 34.0 °F 96% 30.23 in 10.0 mi South 4.6 mph - N/A   Overcast
10:32 PM 32.0 °F 26.4 °F 30.2 °F 93% 30.17 in 10.0 mi SSW 5.8 mph - N/A   Scattered Clouds
10:42 PM 33.8 °F 29.6 °F 32.0 °F 93% 30.16 in 10.0 mi SSE 4.6 mph - N/A   Mostly Cloudy
10:51 PM 33.1 °F 28.7 °F 32.0 °F 96% 30.22 in 3.0 mi South 4.6 mph - N/A   Mostly Cloudy
10:54 PM 32.0 °F 28.7 °F 32.0 °F 100% 30.16 in 1.5 mi SSE 3.5 mph - N/A   Mostly Cloudy
11:04 PM 32.0 °F 27.5 °F 32.0 °F 100% 30.16 in 0.5 mi SSE 4.6 mph - N/A Fog Fog
11:18 PM 32.0 °F 28.7 °F 32.0 °F 100% 30.16 in 0.2 mi SE 3.5 mph - N/A Fog Fog
11:37 PM 30.2 °F - 30.2 °F 100% 30.16 in 0.2 mi Calm Calm - N/A Fog Light Freezing Fog
11:51 PM 30.9 °F - 30.9 °F 100% 30.21 in 0.2 mi Calm Calm - N/A Fog Light Freezing Fog